Date String (YYYY-MM-DD hh:mm:ss) UTC,Instrument flags,absolute air pressure of the measurement (hPa),sample flow rate (lpm),inlet stack bypass flow (lpm),air temperature of the measurement (°C),ambient temperature measured by the external sensor (°C),aerosol sample conditioner tube jacket temperature (°C),OPC LED temperature (°C),internal box temperature (°C),relative humidity of the measurement (%),span deviation,mass concentration of particles derived from Lorenz-Mie calculation of OPC scattering (μg/m³),mass concentration of particles derived from Lorenz-Mie calculation of OPC scattering (μg/m³),mass concentration of particles derived from Lorenz-Mie calculation of OPC scattering (μg/m³)
DateTimeUTC,F1_M11,P_M11,Q1_M11,Q2_M11,T1_M11,T2_M11,T3_M11,T4_M11,T5_M11,U1_M11,ZSPAN_M11,X0_M11,X2_M11,X1_M11
2024-01-23 17:00:00,SystemResetWarning,0826.4,5.01,000.00,022.6,021.9,000.0,030.8,024.1,18.5,0002.6,0016.48,0010.57,0010.11
2024-01-23 17:01:00,SystemResetWarning,0826.5,5.00,000.00,022.6,021.9,000.0,030.8,024.1,18.7,0002.7,0016.54,0010.67,0010.20
2024-01-23 17:02:00,SystemResetWarning,0826.6,5.00,000.00,022.6,022.0,000.0,030.8,024.1,18.8,0002.7,0016.47,0010.73,0010.25
2024-01-23 17:03:00,SystemResetWarning,0826.5,4.99,000.00,022.6,022.0,000.0,030.8,024.1,18.9,0002.8,0016.22,0010.80,0010.33
2024-01-23 17:04:00,SystemResetWarning,0826.5,5.00,000.00,022.6,022.0,000.0,030.8,024.1,18.9,0002.8,0016.18,0010.81,0010.38
2024-01-23 17:05:00,SystemResetWarning,0826.5,5.00,000.00,022.6,022.0,000.0,030.8,024.1,18.8,0002.9,0016.06,0010.77,0010.39
2024-01-23 17:06:00,SystemResetWarning,0826.5,5.00,000.00,022.7,022.0,000.0,030.9,024.2,18.9,0002.8,0015.21,0010.74,0010.40
2024-01-23 17:07:00,SystemResetWarning,0826.5,5.00,000.00,022.7,022.0,000.0,030.9,024.2,18.7,0002.8,0014.75,0010.72,0010.39
2024-01-23 17:08:00,SystemResetWarning,0826.6,5.00,000.00,022.7,022.0,000.0,030.9,024.2,18.7,0002.6,0014.32,0010.69,0010.35
2024-01-23 17:09:00,SystemResetWarning,0826.5,5.01,000.00,022.7,022.1,000.0,030.9,024.2,18.6,0002.8,0014.00,0010.63,0010.30
2024-01-23 17:10:00,SystemResetWarning,0826.5,5.00,000.00,022.7,022.1,000.0,030.9,024.2,18.5,0002.8,0014.40,0010.65,0010.30
2024-01-23 17:11:00,SystemResetWarning,0826.5,5.00,000.00,022.7,022.1,000.0,030.9,024.3,18.4,0002.7,0014.57,0010.69,0010.32
2024-01-23 17:12:00,SystemResetWarning,0826.5,4.99,000.00,022.7,022.1,000.0,030.9,024.3,18.3,0002.7,0014.59,0010.67,0010.29
2024-01-23 17:13:00,SystemResetWarning,0826.5,5.00,000.00,022.8,022.1,000.0,030.9,024.3,18.0,0002.6,0014.52,0010.63,0010.25
2024-01-23 17:14:00,SystemResetWarning,0826.5,5.00,000.00,022.8,022.1,000.0,031.0,024.3,18.0,0002.5,0014.38,0010.56,0010.18
2024-01-23 17:15:00,SystemResetWarning,0826.5,5.01,000.00,022.8,022.1,000.0,031.0,024.3,18.0,0002.4,0014.25,0010.48,0010.13
2024-01-23 17:16:00,SystemResetWarning,0826.5,5.01,000.00,022.8,022.2,000.0,031.0,024.3,18.1,0002.4,0014.21,0010.46,0010.12
2024-01-23 17:17:00,SystemResetWarning,0826.6,5.00,000.00,022.8,022.2,000.0,031.0,024.4,18.0,0002.6,0014.23,0010.44,0010.08
2024-01-23 17:18:00,SystemResetWarning,0826.6,5.01,000.00,022.8,022.2,000.0,031.0,024.4,18.0,0002.7,0014.27,0010.45,0010.06
2024-01-23 17:19:00,SystemResetWarning,0826.5,5.00,000.00,022.8,022.2,000.0,031.0,024.4,17.9,0002.9,0014.32,0010.46,0010.07
2024-01-23 17:20:00,SystemResetWarning,0826.5,4.99,000.00,022.9,022.2,000.0,031.0,024.4,17.9,0002.8,0014.31,0010.49,0010.11
2024-01-23 17:21:00,SystemResetWarning,0826.5,4.99,000.00,022.9,022.2,000.0,031.1,024.4,18.0,0002.9,0013.94,0010.50,0010.12
2024-01-23 17:22:00,SystemResetWarning,0826.6,4.99,000.00,022.9,022.3,000.0,031.1,024.5,17.9,0002.8,0014.82,0010.49,0010.13
2024-01-23 17:23:00,SystemResetWarning,0826.6,5.01,000.00,022.9,022.3,000.0,031.1,024.5,18.0,0002.9,0014.66,0010.48,0010.13
2024-01-23 17:24:00,SystemResetWarning,0826.6,5.01,000.00,022.9,022.3,000.0,031.1,024.5,18.0,0003.1,0014.66,0010.47,0010.14
2024-01-23 17:25:00,SystemResetWarning,0826.5,5.00,000.00,023.0,022.3,000.0,031.1,024.5,18.1,0003.0,0014.70,0010.50,0010.19
2024-01-23 17:26:00,SystemResetWarning,0826.6,5.00,000.00,023.0,022.3,000.0,031.1,024.5,18.1,0003.1,0014.76,0010.56,0010.24
2024-01-23 17:27:00,SystemResetWarning,0826.5,4.99,000.00,023.0,022.4,000.0,031.2,024.5,18.1,0003.4,0014.82,0010.59,0010.27
2024-01-23 17:28:00,SystemResetWarning,0826.5,5.00,000.00,023.0,022.4,000.0,031.2,024.5,18.0,0003.2,0015.22,0010.64,0010.31
2024-01-23 17:29:00,SystemResetWarning,0826.4,5.01,000.00,023.0,022.4,000.0,031.2,024.5,17.9,0003.0,0015.30,0010.64,0010.31
2024-01-23 17:30:00,SystemResetWarning,0826.4,5.00,000.00,023.0,022.4,000.0,031.2,024.6,18.0,0003.0,0015.22,0010.62,0010.30
2024-01-23 17:31:00,SystemResetWarning,0826.4,5.01,000.00,023.0,022.4,000.0,031.2,024.6,17.8,0002.9,0015.36,0010.61,0010.29
2024-01-23 17:32:00,SystemResetWarning,0826.4,5.01,000.00,023.1,022.4,000.0,031.2,024.6,17.9,0002.8,0015.62,0010.63,0010.28
2024-01-23 17:33:00,SystemResetWarning,0826.4,5.00,000.00,023.1,022.5,000.0,031.2,024.6,17.8,0002.9,0014.79,0010.60,0010.26
2024-01-23 17:34:00,SystemResetWarning,0826.4,4.99,000.00,023.1,022.5,000.0,031.3,024.6,17.9,0002.8,0014.59,0010.57,0010.22
2024-01-23 17:35:00,SystemResetWarning,0826.4,5.00,000.00,023.1,022.5,000.0,031.3,024.6,17.6,0002.9,0014.56,0010.52,0010.18
2024-01-23 17:36:00,SystemResetWarning,0826.4,5.00,000.00,023.1,022.5,000.0,031.3,024.6,17.6,0003.0,0014.44,0010.45,0010.12
2024-01-23 17:37:00,SystemResetWarning,0826.4,5.00,000.00,023.1,022.5,000.0,031.3,024.7,17.5,0003.0,0014.63,0010.39,0010.04
2024-01-23 17:38:00,SystemResetWarning,0826.4,5.00,000.00,023.1,022.5,000.0,031.3,024.7,17.4,0002.7,0014.86,0010.36,0010.01
2024-01-23 17:39:00,SystemResetWarning,0826.4,5.00,000.00,023.2,022.5,000.0,031.3,024.7,17.4,0002.4,0014.63,0010.34,0009.97
2024-01-23 17:40:00,SystemResetWarning,0826.4,4.99,000.00,023.2,022.5,000.0,031.3,024.7,17.3,0002.5,0014.40,0010.32,0009.96
2024-01-23 17:41:00,SystemResetWarning,0826.4,5.00,000.00,023.2,022.5,000.0,031.4,024.7,17.3,0002.2,0014.38,0010.27,0009.94
2024-01-23 17:42:00,SystemResetWarning,0826.4,5.00,000.00,023.2,022.6,000.0,031.4,024.8,17.3,0002.3,0014.40,0010.23,0009.91
2024-01-23 17:43:00,SystemResetWarning,0826.4,5.01,000.00,023.2,022.6,000.0,031.4,024.8,17.3,0002.2,0014.62,0010.22,0009.90
2024-01-23 17:44:00,SystemResetWarning,0826.4,5.00,000.00,023.2,022.6,000.0,031.4,024.8,17.3,0002.0,0014.54,0010.22,0009.88
2024-01-23 17:45:00,SystemResetWarning,0826.4,5.00,000.00,023.3,022.6,000.0,031.4,024.8,17.2,0001.9,0014.49,0010.21,0009.88
2024-01-23 17:46:00,SystemResetWarning,0826.4,5.01,000.00,023.3,022.6,000.0,031.4,024.8,17.2,0001.6,0014.47,0010.22,0009.89
2024-01-23 17:47:00,SystemResetWarning,0826.4,4.99,000.00,023.3,022.7,000.0,031.5,024.8,17.2,0001.5,0014.50,0010.24,0009.90
2024-01-23 17:48:00,SystemResetWarning,0826.4,5.00,000.00,023.3,022.7,000.0,031.5,024.8,17.4,0001.6,0014.52,0010.26,0009.94
2024-01-23 17:49:00,SystemResetWarning,0826.4,5.00,000.00,023.3,022.7,000.0,031.5,024.8,17.5,0002.0,0014.30,0010.31,0009.96
2024-01-23 17:50:00,SystemResetWarning,0826.4,4.99,000.00,023.3,022.7,000.0,031.5,024.9,17.6,0002.2,0014.32,0010.30,0009.97
2024-01-23 17:51:00,SystemResetWarning,0826.4,5.00,000.00,023.3,022.7,000.0,031.5,024.9,17.5,0002.2,0014.39,0010.28,0009.96
2024-01-23 17:52:00,SystemResetWarning,0826.4,5.00,000.00,023.4,022.7,000.0,031.5,024.9,17.5,0002.6,0014.40,0010.29,0009.96
2024-01-23 17:53:00,SystemResetWarning,0826.4,5.01,000.00,023.4,022.7,000.0,031.5,024.9,17.6,0002.6,0014.38,0010.32,0009.98
2024-01-23 17:54:00,SystemResetWarning,0826.4,5.01,000.00,023.4,022.8,000.0,031.6,024.9,17.5,0002.6,0013.89,0010.32,0009.99
2024-01-23 17:55:00,SystemResetWarning,0826.4,5.00,000.00,023.4,022.8,000.0,031.6,024.9,17.4,0002.7,0013.86,0010.30,0009.99
2024-01-23 17:56:00,SystemResetWarning,0826.3,5.00,000.00,023.4,022.8,000.0,031.6,024.9,17.3,0002.6,0014.07,0010.28,0009.99
2024-01-23 17:57:00,SystemResetWarning,0826.3,5.00,000.00,023.4,022.8,000.0,031.6,025.0,17.4,0002.7,0014.66,0010.29,0009.99
2024-01-23 17:58:00,SystemResetWarning,0826.3,5.00,000.00,023.4,022.8,000.0,031.6,025.0,17.2,0002.6,0014.67,0010.30,0009.99
2024-01-23 17:59:00,SystemResetWarning,0826.3,5.00,000.00,023.5,022.8,000.0,031.6,025.0,17.3,0002.5,0014.48,0010.28,0009.97
